Location: Keewatin
(47.4004°N, 93.0827°W)
Time: 13:04:08
(UTC+00:00)

Envisat - Pass Details

Date: 15 December 2019
Orbit: 764 x 766 km, 98.1° (Epoch: 18 January)

Event Time Altitude Azimuth Distance (km) Brightness Sun altitude
Rises 22:52:49 0° 130° (SE) 3,225 6.0 -5.3°
Reaches altitude 10° 22:55:26 10° 118° (ESE) 2,303 5.2 -5.7°
Maximum altitude 22:59:34 26° 63° (ENE) 1,480 3.9 -6.3°
Drops below altitude 10° 23:03:44 10° 8° (N) 2,315 5.2 -6.9°
Sets 23:06:21 0° 356° (N) 3,246 6.0 -7.3°
